Regional Weather Roundup
Issued by NWS

Home | Current Version | Previous Version | Text Only | Print | Product List | Glossary On
Versions: 1 2 3 4 5 6 7 8 9 10 11 12 13 14 15 16 17 18 19 20 21 22 23 24 25 26 27 28 29 30 31 32 33 34 35 36 37 38 39 40 41 42 43 44 45 46 47 48 49 50
000
ASUS42 KFFC 172203
RWRGA
WEATHER ROUNDUP FOR GEORGIA
NATIONAL WEATHER SERVICE PEACHTREE CITY GA
600 PM EDT WED SEP 17 2014

NOTE: "FAIR" INDICATES FEW OR NO CLOUDS BELOW 12,000 FEET WITH NO
SIGNIFICANT WEATHER AND/OR OBSTRUCTIONS TO VISIBILITY.

* = USE WITH CAUTION. THE STATIONS MARKED WITH AN ASTERISK MAY NOT
REPORT WEATHER SUCH AS PRECIPITATION, FOG, OR THUNDER AND ARE NOT
QUALITY CONTROLLED BY NWS.

THE REMARK "TC" DENOTES TEMPERATURE READING IN DEGREES CELSIUS.

GAZ001>058-172300-
NORTH GEORGIA

CITY           SKY/WX    TMP DP  RH WIND       PRES   REMARKS
ATLANTA        PTSUNNY   84  59  42 NW14      29.90S
ATHENS         MOSUNNY   83  60  45 W5        29.88S
CHAMBLEE       SUNNY     81  57  43 W9        29.91S
PEACHTREE CITY SUNNY     85  58  39 NW12      29.89F
ROME           SUNNY     82  57  42 NW9       29.92R
WEST ATLANTA   SUNNY     82  59  45 NW12      29.90S
GAINESVILLE    MOSUNNY   79  56  45 NW12      29.93S
CARTERSVILLE   MOSUNNY   82  58  43 N6        29.91F


CITY           SKY/WX    TMP DP  RH WIND       PRES   REMARKS
DALTON*        SUNNY     75  59  57 N6        29.95R
LAWRENCEVILLE* SUNNY    N/A N/A N/A W10       29.90F
MARIETTA       MOSUNNY   81  60  48 W12       29.92S
KENNESAW*      MOSUNNY   81  57  44 W8        29.93S
$$

GAZ059>098-102>109-172300-
CENTRAL GEORGIA

CITY           SKY/WX    TMP DP  RH WIND       PRES   REMARKS
AUGUSTA-BUSH   PTSUNNY   74  69  85 CALM      29.87S
AUGUSTA-DANIEL PTSUNNY   77  68  73 SE7       29.89R
COLUMBUS       SUNNY     89  62  40 NW9       29.87S
MACON          MOSUNNY   88  64  44 NW7       29.85F
ROBINS AFB     MOSUNNY   85  71  62 SE6       29.85F HX  90


CITY           SKY/WX    TMP DP  RH WIND       PRES   REMARKS
LAGRANGE*      MOSUNNY   87  72  59 W7        29.90S HX  93
SYLVANIA*      RAIN      82  78  90 CALM      29.86R HX  91
MILLEDGEVILLE* MOSUNNY   86  70  58 CALM      29.86  HX  90
$$

GAZ099>101-110>166-172300-
SOUTH GEORGIA

CITY           SKY/WX    TMP DP  RH WIND       PRES   REMARKS
SAVANNAH       PTSUNNY   84  70  62 S9G21     29.85S
VALDOSTA       MOSUNNY   86  71  60 S8        29.85F HX  91
ALMA           MOSUNNY   86  67  52 W3        29.85R
ST SIMONS      PTSUNNY   82  74  76 E6        29.85F
FT STEWART     PTSUNNY   76  67  74 SE2       29.83F
ALBANY         MOSUNNY   87  69  54 CALM      29.89S HX  91
HUNTER AFB     PTSUNNY   82  72  71 S7        29.83F
MOODY AFB      SUNNY     88  68  52 S7        29.86S HX  91
BRUNSWICK      CLOUDY    73  68  83 CALM      29.87S


CITY           SKY/WX    TMP DP  RH WIND       PRES   REMARKS
BAINBRIDGE*    SUNNY     86  72  62 N5        29.87S HX  92
MOULTRIE*      MOSUNNY   88  70  55 CALM      29.87S HX  92
VIDALIA*       MOSUNNY   88  70  55 NW5       29.85R HX  92
WAYCROSS*      SUNNY     92  72  50 NW3       29.84R HX 100
DOUGLAS*       SUNNY     91  66  43 W5        29.86S HX  94
$$


USA.gov is the U.S. government's official web portal to all federal, state and local government web resources and services.